Home > Weather > Arrecife > Past weeks

Flag for Spain Past Weather in Arrecife, Canary Islands, Spain — Yesterday and Last 2 Weeks

Now
70 °F

Mild.


Feels Like: 73 °F
Forecast: 69 / 79 °F
Wind: 14 mph from Northeast

Location: Lanzarote / Aeropuerto

Current Time: Jun 30, 2016 at 6:05:14 AM

Latest Report: Jun 30, 2016 at 5:00 AM


Visibility: N/A

Pressure: 30.09 "Hg

Humidity: 73%

Dew Point: 61 °F

Location of ArrecifeLocation

Past Weather in Arrecife — Graph

°F

Arrecife Temperature Yesterday

Maximum temperature yesterday: 81 °F (at 4:00 PM)
Minimum temperature yesterday: 69 °F (at 7:00 AM)
Average temperature yesterday: 73 °F

High & Low Weather Summary for the Past Weeks

 TemperatureHumidityPressure
High97 °F (Jun 23, 5:00 PM)91% (Jun 15, 6:00 AM)30.24 "Hg (Jun 15, 6:00 AM)
Low65 °F (Jun 18, 3:00 AM)24% (Jun 23, 6:00 PM)29.93 "Hg (Jun 23, 6:00 PM)
Average73 °F65%30.06 "Hg
* Reported Jun 15 5:00 AM — Jun 30 5:00 AM, Arrecife, Weather by CustomWeather, © 2016

Note: Actual official high and low records may vary slightly from our data, if they occured in-between our weather recording intervals... More about our weather records

Advertising

Arrecife Weather History for the Previous 24 Hours

Scroll right to see more
 ConditionsComfort  
Time TempWeatherWind HumidityBarometerVisibility
5:00 AM
Thu, Jun 30
70 °FMild.14 mph73%30.09 "HgN/A
4:00 AM70 °FMild.15 mph75%30.09 "HgN/A
3:00 AM70 °FMild.14 mph76%30.11 "HgN/A
2:00 AM70 °FMild.12 mph77%30.12 "HgN/A
1:00 AM71 °FOvercast.15 mph75%30.13 "Hg12 mi
12:00 AM70 °FMild.16 mph70%30.14 "HgN/A
11:00 PM
Wed, Jun 29
71 °FMild.15 mph74%30.12 "HgN/A
10:00 PM71 °FMild.15 mph76%30.11 "HgN/A
9:00 PM72 °FMild.16 mph77%30.10 "HgN/A
8:00 PM74 °FMild.17 mph74%30.08 "HgN/A
7:00 PM75 °FOvercast.17 mph69%30.06 "Hg12 mi
6:00 PM76 °FMild.17 mph65%30.06 "HgN/A
5:00 PM79 °FWarm.17 mph59%30.06 "HgN/A
4:00 PM81 °FPartly sunny.15 mph51%30.07 "Hg16 mi
3:00 PM78 °FWarm.16 mph60%30.08 "HgN/A
2:00 PM77 °FMild.14 mph63%30.10 "HgN/A
1:00 PM76 °FOvercast.12 mph63%30.10 "Hg19 mi
12:00 PM75 °FMild.13 mph66%30.10 "HgN/A
11:00 AM72 °FMild.10 mph75%30.09 "HgN/A
10:00 AM72 °FOvercast.12 mph73%30.09 "Hg16 mi
9:00 AM70 °FMild.9 mph82%30.08 "HgN/A
8:00 AM69 °FMild.10 mph81%30.06 "HgN/A
7:00 AM69 °FOvercast.9 mph78%30.06 "Hg12 mi
6:00 AM70 °FMild.8 mph76%30.05 "HgN/A
Weather by CustomWeather, © 2016

See weather overviewHow to use our weather pages